[[{"header":{"parameterUnit":"m.s-1","parameterCategory":1,"la1":30.2991,"la2":30.254,"lo1":-89.0895,"lo2":-89.0444,"dy":0.0017,"dx":0.0017,"nx":28,"ny":28,"refTime":"2023-08-19T03:00:00:Z","depth":0,"parameterNumber":2,"parameterNumberName":"U-component_of_WINDS"},"data":[0,0,0,0,0,0,0,0,0,0,0,0,0,0,0,0,0,0,0,0,0,0,0,0,0,0,0,0,0,0,0,0,0,0,0,0,0,0,0,0,0,0,0,0,0,0,0,0,0,0,0,0,0,0,0,0,0,0,3.2852,3.2853,0,3.2925,3.2926,3.2927,3.2866,3.2863,3.286,3.2858,3.2931,3.2935,3.2939,0,0,0,0,0,0,0,0,0,0,0,0,0,3.2659,3.2663,3.2852,3.2853,3.2854,3.2925,3.2926,3.2927,3.2866,3.2863,3.286,3.2857,3.2929,3.2934,3.294,0,0,0,0,0,0,0,0,0,0,0,0,0,3.2739,3.2665,3.2852,3.2832,3.2831,3.2925,3.2926,3.2927,3.2867,3.2863,3.2859,3.2855,3.2928,3.2934,3.294,3.3057,0,0,3.296,3.2963,0,0,0,0,0,0,0,0,3.2734,3.2746,3.2834,3.2834,3.2833,3.2882,3.2885,3.2971,3.2868,3.2853,3.2858,3.2854,3.2918,3.2925,3.2947,3.306,3.3063,3.2961,3.2965,3.2967,3.2969,0,0,0,0,0,0,0,3.2729,3.2742,3.2881,3.2836,3.2835,3.2819,3.2826,3.2901,3.2906,3.2854,3.285,3.2859,3.2916,3.2941,3.2948,3.3064,3.296,3.2966,3.297,3.2973,3.3277,3.3281,0,0,0,0,0,0,3.2726,3.2738,3.2879,3.2883,3.2773,3.2826,3.2834,3.287,3.2905,3.2907,3.2863,3.2856,3.2931,3.294,3.295,3.3088,3.2967,3.2973,3.2977,3.3273,3.3278,3.3283,0,0,0,0,0,0,3.2722,3.2739,3.2876,3.281,3.2826,3.2833,3.2875,3.2874,3.2898,3.2911,3.2912,3.2886,3.2929,3.2941,3.3031,3.309,3.2976,3.2982,3.3268,3.3274,3.328,3.3366,0,0,0,0,0,0,3.2717,3.2738,3.2782,3.2811,3.283,3.2956,3.2879,3.2878,3.2909,3.2902,3.2934,3.2935,3.2927,3.3022,3.3037,3.3097,3.2987,3.3263,3.3271,3.3278,3.3358,3.3374,3.3388,0,0,0,0,0,3.271,3.2803,3.2785,3.2802,3.2886,3.2959,3.297,3.2958,3.2914,3.2959,3.2968,3.2934,3.3082,3.3031,3.3048,3.3111,3.3259,3.3269,3.3278,3.3351,3.3371,3.3388,0,0,0,0,0,0,3.278,3.2806,3.2786,3.2892,3.2924,3.2949,3.3004,3.298,3.3025,3.3016,3.3,3.3007,3.3102,3.3115,3.3059,3.3225,3.3163,3.3176,3.3213,3.3232,3.3247,3.3241,3.2993,0,0,0,0,0,3.2808,3.2866,3.2886,3.2977,3.2994,3.2997,3.3028,3.3017,3.3049,3.3062,3.3078,3.311,3.3163,3.3199,3.3249,3.336,3.3366,3.3412,3.3427,3.344,3.3451,3.351,3.3531,3.3314,3.3314,3.3313,0,0,3.2865,3.2887,3.2924,3.2991,3.3015,3.3075,3.3008,3.3075,3.3119,3.3072,3.3157,3.3171,3.3205,3.3307,3.3352,3.3321,3.3512,3.3452,3.3462,3.3466,3.3522,3.3543,3.3561,3.332,3.3319,3.3318,0,0,3.3001,3.3024,3.3102,3.3127,3.3164,3.3165,3.3184,3.3214,3.322,3.3306,3.3273,3.3325,3.3418,3.3444,3.3469,3.3617,3.3587,3.3634,3.3713,3.3771,3.3788,3.3803,3.3855,3.3874,3.3645,3.3645,3.3646,0,3.3067,3.3157,3.3145,3.3214,3.3244,3.3206,3.3285,3.331,3.3361,3.3383,3.3348,3.3463,3.3484,3.3591,3.3627,3.3649,3.367,3.3629,3.3787,3.3802,3.3816,3.3865,3.3884,3.3651,3.365,3.3649,3.3649,0,3.3237,3.3299,3.3358,3.3409,3.3446,3.352,3.3519,3.3558,3.3544,3.3549,3.3637,3.3662,3.3716,3.3741,3.3728,3.3846,3.3825,3.379,3.3726,3.3842,3.3888,3.3906,3.3658,3.3656,3.3655,3.3653,0,0,3.3416,3.3461,3.3482,3.3505,3.3544,3.3592,3.3664,3.3718,3.3751,3.3788,3.3848,3.3928,3.3895,3.3924,3.3914,3.3966,3.408,3.3923,3.3924,3.395,3.4211,3.4236,3.4258,3.4062,3.4065,3.4068,3.4207,0,3.3552,3.3677,3.3669,3.3787,3.3845,3.3811,3.3874,3.3904,3.3912,3.3961,3.3969,3.4026,3.3979,3.3996,3.4046,3.4056,3.4132,3.4046,3.4116,3.4119,3.4106,3.4282,3.4309,3.4439,3.4225,3.4228,3.4231,0,3.3727,3.3771,3.3895,3.3925,3.3949,3.4006,3.4054,3.4103,3.4137,3.4138,3.4172,3.4154,3.4226,3.4163,3.4263,3.4204,3.4233,3.4242,3.4247,3.4251,3.418,3.429,3.4481,3.45,3.4259,3.4257,3.4255,0,3.3844,3.3934,3.402,3.404,3.4078,3.4119,3.4137,3.4167,3.42,3.4243,3.4264,3.4315,3.4342,3.4382,3.4378,3.4333,3.4479,3.4416,3.4482,3.4482,3.4512,3.451,3.4708,3.4534,3.4534,3.4533,3.4533,0,3.3995,3.4072,3.4073,3.4125,3.421,3.4201,3.4285,3.4298,3.4326,3.438,3.4355,3.4406,3.4398,3.445,3.4447,3.453,3.4543,3.4545,3.4543,3.4547,3.4546,3.4564,3.4554,3.4539,3.4537,3.4536,3.4536,0,3.4139,3.4143,3.4234,3.4263,3.4272,3.4333,3.4358,3.4408,3.4414,3.4483,3.4498,3.4508,3.4567,3.4568,3.4636,3.4634,3.4734,3.4723,3.4723,3.472,3.4786,3.4779,3.5001,3.5029,3.4838,3.484,3.4841,0,3.4235,3.4293,3.4329,3.4364,3.4384,3.444,3.4474,3.4468,3.4504,3.4548,3.4592,3.465,3.4695,3.4792,3.4804,3.4856,3.4845,3.4919,3.4852,3.4854,3.4844,3.484,3.4845,3.4931,3.4933,3.4935,3.4937,0,3.4404,3.4403,3.4453,3.4504,3.4545,3.4585,3.4622,3.4652,3.4649,3.4692,3.4752,3.4788,3.4858,3.4915,3.4965,3.4983,3.4959,3.4958,3.4976,3.4979,3.4975,3.4977,3.4757,3.4952,3.4951,3.495,3.4949,3.4948,3.4525,3.4575,3.4609,3.4665,3.4693,3.4728,3.4776,3.4788,3.4839,3.4896,3.4889,3.4957,3.499,3.5055,3.5078,3.513,3.5104,3.5131,3.5137,3.5143,3.5149,3.4969,3.514,3.5139,3.5139,3.5139,3.5138,0,3.4692,3.4712,3.4764,3.4816,3.4861,3.4837,3.4876,3.4915,3.4975,3.5008,3.5054,3.5124,3.5179,3.5197,3.5251,3.529,3.528,3.5304,3.53,3.5304,3.517,3.5149,3.531,3.531,3.531,3.531,3.531,3.531,3.4783,3.4867,3.487,3.4967,3.4986,3.5053,3.5077,3.511,3.5136,3.5216,3.5262,3.5273,3.53,3.5356,3.5406,3.541,3.543,3.5458,3.5457,3.5331,3.5314,3.5297,3.5277,3.5463,3.5463,3.5586,3.5587,3.5588]},{"header":{"parameterUnit":"m.s-1","parameterCategory":1,"la1":30.2991,"la2":30.254,"lo1":-89.0895,"lo2":-89.0444,"dy":0.0017,"dx":0.0017,"nx":28,"ny":28,"refTime":"2023-08-19T03:00:00:Z","depth":0,"parameterNumber":3,"parameterNumberName":"V-component_of_WINDS"},"data":[0,0,0,0,0,0,0,0,0,0,0,0,0,0,0,0,0,0,0,0,0,0,0,0,0,0,0,0,0,0,0,0,0,0,0,0,0,0,0,0,0,0,0,0,0,0,0,0,0,0,0,0,0,0,0,0,0,0,-0.3555,-0.3556,0,-0.3607,-0.3607,-0.3608,-0.3637,-0.3638,-0.3638,-0.3638,-0.3688,-0.3689,-0.3691,0,0,0,0,0,0,0,0,0,0,0,0,0,-0.3481,-0.3482,-0.3555,-0.3556,-0.3557,-0.3607,-0.3607,-0.3608,-0.3637,-0.3638,-0.3638,-0.3638,-0.3688,-0.3689,-0.3691,0,0,0,0,0,0,0,0,0,0,0,0,0,-0.3521,-0.3482,-0.3555,-0.3577,-0.358,-0.3607,-0.3607,-0.3608,-0.3637,-0.3638,-0.3638,-0.3638,-0.3687,-0.3689,-0.3691,-0.3699,0,0,-0.3697,-0.3698,0,0,0,0,0,0,0,0,-0.3518,-0.3523,-0.3573,-0.3576,-0.3579,-0.3616,-0.36,-0.3639,-0.3637,-0.3615,-0.3638,-0.3638,-0.3664,-0.3668,-0.3677,-0.3701,-0.3704,-0.3697,-0.3698,-0.3699,-0.3699,0,0,0,0,0,0,0,-0.3515,-0.3521,-0.3576,-0.3574,-0.3577,-0.3584,-0.359,-0.3607,-0.3638,-0.3617,-0.362,-0.3625,-0.3665,-0.3675,-0.3678,-0.3704,-0.3697,-0.3698,-0.37,-0.37,-0.3738,-0.3738,0,0,0,0,0,0,-0.3509,-0.3519,-0.3574,-0.3577,-0.3548,-0.3585,-0.3592,-0.3604,-0.3638,-0.3643,-0.3625,-0.3627,-0.3672,-0.3676,-0.368,-0.3692,-0.3699,-0.3701,-0.3702,-0.3738,-0.3738,-0.3738,0,0,0,0,0,0,-0.3508,-0.3514,-0.3572,-0.3549,-0.3556,-0.3586,-0.3599,-0.3605,-0.3614,-0.3644,-0.3649,-0.363,-0.3672,-0.3678,-0.3694,-0.3694,-0.3701,-0.3703,-0.3738,-0.3738,-0.3738,-0.3715,0,0,0,0,0,0,-0.3505,-0.3513,-0.3517,-0.3548,-0.3558,-0.3586,-0.3599,-0.3606,-0.3618,-0.362,-0.3649,-0.3654,-0.3673,-0.3691,-0.3696,-0.3697,-0.3705,-0.3738,-0.3738,-0.3738,-0.3716,-0.3714,-0.3713,0,0,0,0,0,-0.3503,-0.3508,-0.3517,-0.3524,-0.3563,-0.3586,-0.3591,-0.3612,-0.3618,-0.3621,-0.364,-0.3653,-0.3693,-0.3693,-0.3698,-0.37,-0.3739,-0.3738,-0.3738,-0.3717,-0.3715,-0.3713,0,0,0,0,0,0,-0.3475,-0.3513,-0.3523,-0.3539,-0.3559,-0.3591,-0.3596,-0.3609,-0.3627,-0.3629,-0.3654,-0.366,-0.3675,-0.3689,-0.3688,-0.3709,-0.3717,-0.3718,-0.3699,-0.3698,-0.3696,-0.3692,-0.3706,0,0,0,0,0,-0.3471,-0.3487,-0.3519,-0.353,-0.3539,-0.3566,-0.3576,-0.3591,-0.3613,-0.3621,-0.3641,-0.3661,-0.3678,-0.3689,-0.3706,-0.3718,-0.3725,-0.3722,-0.372,-0.3719,-0.3719,-0.3727,-0.3726,-0.3737,-0.3737,-0.3737,0,0,-0.3463,-0.3485,-0.3493,-0.3525,-0.3542,-0.3557,-0.3573,-0.3588,-0.3599,-0.3623,-0.364,-0.3656,-0.3679,-0.3694,-0.3702,-0.3706,-0.3718,-0.3718,-0.3717,-0.3718,-0.3726,-0.3725,-0.3724,-0.3737,-0.3737,-0.3737,0,0,-0.3455,-0.3474,-0.3485,-0.3502,-0.3528,-0.3546,-0.3549,-0.3578,-0.359,-0.3608,-0.3626,-0.3639,-0.3668,-0.3684,-0.3696,-0.3695,-0.3707,-0.37,-0.3691,-0.3698,-0.3697,-0.3696,-0.3695,-0.3695,-0.37,-0.37,-0.37,0,-0.3441,-0.3465,-0.3489,-0.3504,-0.3517,-0.354,-0.3551,-0.3566,-0.3596,-0.3604,-0.3609,-0.3646,-0.3664,-0.3683,-0.3682,-0.3691,-0.3695,-0.3696,-0.3695,-0.3695,-0.3694,-0.3694,-0.3694,-0.3699,-0.3699,-0.3699,-0.3699,0,-0.3447,-0.3463,-0.3469,-0.3498,-0.3512,-0.3525,-0.355,-0.3561,-0.3574,-0.3591,-0.3609,-0.3631,-0.3653,-0.3659,-0.3672,-0.3679,-0.3681,-0.3691,-0.3699,-0.3692,-0.3692,-0.3692,-0.3697,-0.3698,-0.3698,-0.3698,0,0,-0.3423,-0.3465,-0.3467,-0.3481,-0.3511,-0.3524,-0.3538,-0.356,-0.3569,-0.3589,-0.3601,-0.3625,-0.3633,-0.3647,-0.3662,-0.3668,-0.3666,-0.3677,-0.3678,-0.3674,-0.3675,-0.3668,-0.3667,-0.3674,-0.3675,-0.3675,-0.3673,0,-0.342,-0.3446,-0.3468,-0.3486,-0.3501,-0.3523,-0.3535,-0.3555,-0.3571,-0.3586,-0.3603,-0.362,-0.363,-0.3639,-0.3646,-0.3665,-0.3666,-0.3665,-0.3685,-0.3685,-0.3678,-0.3667,-0.366,-0.3657,-0.3673,-0.3673,-0.3673,0,-0.3419,-0.3439,-0.3459,-0.3488,-0.3495,-0.3505,-0.3528,-0.3542,-0.3564,-0.3576,-0.3591,-0.3607,-0.3622,-0.3629,-0.365,-0.3648,-0.3658,-0.3668,-0.3669,-0.3671,-0.3679,-0.3669,-0.3657,-0.3656,-0.3674,-0.3673,-0.3673,0,-0.34,-0.3431,-0.3447,-0.3458,-0.3493,-0.3499,-0.3514,-0.3537,-0.3549,-0.3568,-0.3576,-0.3596,-0.3607,-0.3623,-0.3643,-0.3647,-0.3662,-0.3671,-0.3671,-0.367,-0.3673,-0.3672,-0.3662,-0.3679,-0.3679,-0.3679,-0.3679,0,-0.3394,-0.3405,-0.3439,-0.3449,-0.3462,-0.3486,-0.3498,-0.3515,-0.3535,-0.3548,-0.3568,-0.3579,-0.3606,-0.3621,-0.3637,-0.3652,-0.3656,-0.3666,-0.367,-0.3664,-0.3662,-0.367,-0.3671,-0.3679,-0.3679,-0.3679,-0.3679,0,-0.3374,-0.3397,-0.3416,-0.3447,-0.3456,-0.3464,-0.349,-0.35,-0.3518,-0.3534,-0.3539,-0.3566,-0.3584,-0.3607,-0.3632,-0.3643,-0.3655,-0.3662,-0.3648,-0.365,-0.3649,-0.3649,-0.3643,-0.3643,-0.366,-0.366,-0.366,0,-0.3368,-0.3378,-0.341,-0.342,-0.3435,-0.3451,-0.3464,-0.3488,-0.35,-0.3527,-0.3533,-0.3553,-0.3571,-0.3599,-0.362,-0.3639,-0.3646,-0.3643,-0.3649,-0.3643,-0.3646,-0.3645,-0.3646,-0.3641,-0.3641,-0.364,-0.364,0,-0.3356,-0.3367,-0.3385,-0.3407,-0.3421,-0.344,-0.3458,-0.3466,-0.3494,-0.3506,-0.3526,-0.3539,-0.3565,-0.3585,-0.3607,-0.3621,-0.3635,-0.3638,-0.3639,-0.3633,-0.3624,-0.3629,-0.3643,-0.3638,-0.3638,-0.3638,-0.3639,-0.3639,-0.3343,-0.3352,-0.3377,-0.3396,-0.3413,-0.343,-0.3441,-0.346,-0.3477,-0.35,-0.3514,-0.3532,-0.3555,-0.3586,-0.36,-0.3615,-0.362,-0.3621,-0.3622,-0.3621,-0.362,-0.3622,-0.3619,-0.3619,-0.3619,-0.3619,-0.3619,0,-0.3332,-0.3349,-0.3366,-0.3392,-0.3407,-0.342,-0.3441,-0.3453,-0.3469,-0.3489,-0.3506,-0.3528,-0.3547,-0.357,-0.359,-0.3598,-0.3604,-0.3602,-0.3602,-0.3605,-0.3614,-0.3611,-0.3596,-0.3596,-0.3596,-0.3596,-0.3596,-0.3596,-0.3327,-0.3344,-0.3358,-0.3382,-0.3399,-0.3418,-0.3429,-0.3445,-0.3461,-0.3485,-0.3501,-0.3516,-0.3538,-0.356,-0.3577,-0.3584,-0.359,-0.3586,-0.3594,-0.3602,-0.3604,-0.3606,-0.3603,-0.3587,-0.3587,-0.3583,-0.3583,-0.3583]}]]